Location: Lake Sonoma
(38.7200°N, 123.0564°W)
Time: 23:23:59
(UTC-07:00)

Amateur Radio Satellites - All Passes

Search period start: 01 October 2014 22:53
Search period end: 02 October 2014 22:53
Location: Lake Sonoma, 38.7200°N, 123.0564°W

Satellite Date Start Highest point End Downlink Frequencies (MHz)
Time Altitude Azimuth
UOSAT-12 01 Oct 23:00:46 23:03:29 15° 318° (NW) 23:06:13 437.025 FM, 437.400 FM
PANSAT 01 Oct 23:04:44 23:06:40 13° 192° (SSW) 23:08:36 not established
ZACube-1 01 Oct 23:14:12 23:18:33 46° 261° (W) 23:23:00 437.345 MHz
ISS 02 Oct 00:00:31 00:02:38 16° 339° (NNW) 00:04:46 145.800 FM
FUNcube-1 02 Oct 00:07:39 00:09:50 13° 269° (W) 00:12:01 145.950 - 145.970 MHz USB
Saudisat 1A 02 Oct 00:18:25 00:22:01 25° 248° (WSW) 00:25:36 436.775 MHz
KITSAT 1 02 Oct 00:46:31 00:52:27 22° 39° (NE) 00:58:22 435.175 FM
RS-15 02 Oct 01:43:20 01:53:21 42° 108° (ESE) 02:03:12 29.354 - 29.394 USB, Beacon 29.352 USB
Oscar 19 02 Oct 02:08:16 02:12:50 31° 97° (E) 02:17:21 437.125 CW, 437.150 USB
ITAMSAT 1 02 Oct 02:23:11 02:26:41 18° 93° (E) 02:30:10 435.822 SSB
Uribyol 2 02 Oct 02:23:38 02:27:21 19° 93° (E) 02:31:02 436.500 FM
KITSAT 1 02 Oct 02:40:58 02:49:06 83° 61° (ENE) 02:57:10 435.175 FM
JAS-1B 02 Oct 02:43:16 02:48:39 41° 100° (E) 02:54:32 435.800 - 435.900 CW/SSB
Oscar 16 02 Oct 02:49:07 02:54:18 83° 103° (ESE) 02:59:25 437.025 USB, Beacon 2401.1428
AO-Echo 02 Oct 02:50:13 02:55:00 41° 99° (E) 02:59:53 ?
AO-27 02 Oct 03:00:48 03:05:46 42° 99° (E) 03:10:42 436.795 MHz FM
ISS 02 Oct 03:16:16 03:18:21 15° 20° (NNE) 03:20:25 145.800 FM
Gurwin Techsat 1B 02 Oct 03:31:33 03:36:33 41° 98° (E) 03:41:31 435.225 FM
Oscar 10/S400 02 Oct 03:37:27 04:35:00 18° 250° (WSW) 06:28:48 145.825 - 145.975 CW/USB, Beacon 145.810 USB
SO-50 02 Oct 03:47:34 03:51:59 34° 51° (NE) 03:56:25 436.795 FM
Oscar 19 02 Oct 03:47:41 03:52:04 29° 292° (WNW) 03:56:24 437.125 CW, 437.150 USB
RS-15 02 Oct 03:54:35 04:05:19 55° 309° (NW) 04:16:02 29.354 - 29.394 USB, Beacon 29.352 USB
TMSAT-1 02 Oct 03:59:21 04:04:34 55° 100° (E) 04:09:45 436.925 FM
ITAMSAT 1 02 Oct 04:01:23 04:06:27 52° 288° (WNW) 04:11:30 435.822 SSB
Uribyol 2 02 Oct 04:02:02 04:07:02 48° 289° (WNW) 04:12:02 436.500 FM
Uosat F 02 Oct 04:15:56 04:16:53 11° 90° (E) 04:17:51 435.120 FM
AO-Echo 02 Oct 04:29:38 04:33:30 23° 293° (WNW) 04:37:26 ?
Oscar 16 02 Oct 04:31:01 04:32:54 12° 300° (WNW) 04:34:47 437.025 USB, Beacon 2401.1428
JAS-1B 02 Oct 04:34:35 04:39:11 26° 294° (WNW) 04:44:03 435.800 - 435.900 CW/SSB
KITSAT 1 02 Oct 04:38:18 04:43:29 19° 258° (WSW) 04:48:40 435.175 FM
AO-7 02 Oct 04:39:08 04:46:21 32° 97° (E) 04:53:30 29.400 - 29.500 MHz
AO-27 02 Oct 04:40:58 04:44:59 23° 295° (WNW) 04:48:59 436.795 MHz FM
ISS 02 Oct 04:52:10 04:55:30 78° 37° (NE) 04:58:48 145.800 FM
OPAL 02 Oct 05:07:04 05:12:16 77° 73° (ENE) 05:17:30 ?
Gurwin Techsat 1B 02 Oct 05:12:03 05:16:15 24° 294° (WNW) 05:20:26 435.225 FM
MaSat-1 02 Oct 05:21:18 05:25:56 46° 110° (ESE) 05:30:24 437.345 MHz
SO-50 02 Oct 05:28:19 05:32:26 28° 247° (WSW) 05:36:34 436.795 FM
TMSAT-1 02 Oct 05:40:28 05:44:01 19° 296° (WNW) 05:47:34 436.925 FM
JAS-2 02 Oct 05:47:44 05:53:12 24° 94° (E) 05:59:02 435.800 - 435.900 CW/SSB, 435.910 FM
UOSAT-12 02 Oct 05:49:10 05:53:44 46° 54° (NE) 05:58:12 437.025 FM, 437.400 FM
Uosat F 02 Oct 05:51:09 05:56:13 79° 285° (WNW) 06:01:14 435.120 FM
Hamsat 02 Oct 05:55:41 05:57:16 12° 91° (E) 05:58:51 145.90 MHz
STRAND 1 02 Oct 06:12:07 06:16:00 23° 65° (ENE) 06:19:54 ?
RS-15 02 Oct 06:13:25 06:20:55 20° 339° (NNW) 06:28:30 29.354 - 29.394 USB, Beacon 29.352 USB
AO-7 02 Oct 06:31:23 06:39:22 55° 294° (WNW) 06:47:21 29.400 - 29.500 MHz
OPAL 02 Oct 06:49:47 06:51:39 12° 268° (W) 06:53:32 ?
MaSat-1 02 Oct 06:58:57 07:02:33 21° 304° (NW) 07:06:01 437.345 MHz
SO-67 02 Oct 07:16:52 07:17:41 11° 92° (E) 07:18:29 435.3500 MHz FM
Hamsat 02 Oct 07:29:27 07:33:31 50° 286° (WNW) 07:37:32 145.90 MHz
UOSAT-12 02 Oct 07:30:13 07:33:31 19° 250° (WSW) 07:36:46 437.025 FM, 437.400 FM
JAS-2 02 Oct 07:31:47 07:38:26 62° 287° (WNW) 07:45:49 435.800 - 435.900 CW/SSB, 435.910 FM
STRAND 1 02 Oct 07:50:07 07:54:54 41° 261° (W) 07:59:43 ?
AO-7 02 Oct 08:28:11 08:30:18 11° 315° (NW) 08:32:26 29.400 - 29.500 MHz
RS-15 02 Oct 08:32:08 08:39:20 19° 17° (NNE) 08:46:38 29.354 - 29.394 USB, Beacon 29.352 USB
SO-67 02 Oct 08:47:39 08:50:51 36° 286° (WNW) 08:54:02 435.3500 MHz FM
Sapphire 02 Oct 08:51:41 08:56:11 28° 108° (ESE) 09:00:42 437.095 MHz 1200 baud AX-25 AFSK
PCSat 02 Oct 09:16:16 09:21:27 50° 112° (ESE) 09:26:41 145.825 MHz
JAS-2 02 Oct 09:21:23 09:22:23 10° 304° (WNW) 09:23:24 435.800 - 435.900 CW/SSB, 435.910 FM
HO-68 02 Oct 09:26:10 09:32:29 32° 97° (E) 09:38:44 435.675 MHz FM
AO-40 02 Oct 09:52:24 01:04:05 44° 183° (S) 10:15:13 Beacon 2401.320
Oscar 11 02 Oct 09:53:00 09:55:16 14° 92° (E) 09:57:31 145.825 FM, Beacon 2401.500 USB
FUNcube-1 02 Oct 10:21:30 10:23:16 12° 90° (E) 10:25:00 145.950 - 145.970 MHz USB
UKube-1 02 Oct 10:22:22 10:26:27 37° 99° (E) 10:30:30 145.840 MHz, 145.915 MHz
Sapphire 02 Oct 10:34:22 10:39:24 39° 305° (NW) 10:44:29 437.095 MHz 1200 baud AX-25 AFSK
RS-15 02 Oct 10:44:48 10:55:28 48° 48° (NE) 11:06:28 29.354 - 29.394 USB, Beacon 29.352 USB
PCSat 02 Oct 11:00:50 11:05:08 24° 310° (NW) 11:09:29 145.825 MHz
ZACube-1 02 Oct 11:04:59 11:09:13 38° 97° (E) 11:13:20 437.345 MHz
HO-68 02 Oct 11:13:30 11:20:17 47° 293° (WNW) 11:27:03 435.675 MHz FM
Oscar 11 02 Oct 11:27:32 11:31:41 46° 287° (WNW) 11:35:47 145.825 FM, Beacon 2401.500 USB
FUNcube-1 02 Oct 11:55:34 12:00:02 57° 286° (WNW) 12:04:21 145.950 - 145.970 MHz USB
UKube-1 02 Oct 11:59:20 12:02:21 19° 294° (WNW) 12:05:22 145.840 MHz, 145.915 MHz
Oscar 16 02 Oct 12:29:00 12:31:12 13° 61° (ENE) 12:33:25 437.025 USB, Beacon 2401.1428
ZACube-1 02 Oct 12:42:06 12:45:18 19° 294° (WNW) 12:48:27 437.345 MHz
Saudisat 1A 02 Oct 12:47:14 12:48:03 10° 107° (ESE) 12:48:52 436.775 MHz
RS-15 02 Oct 12:57:18 13:07:55 52° 249° (WSW) 13:18:59 29.354 - 29.394 USB, Beacon 29.352 USB
Oscar 19 02 Oct 13:23:44 13:28:34 41° 70° (ENE) 13:33:24 437.125 CW, 437.150 USB
JAS-1B 02 Oct 13:27:08 13:33:44 35° 68° (ENE) 13:39:26 435.800 - 435.900 CW/SSB
ITAMSAT 1 02 Oct 13:39:52 13:43:59 25° 66° (ENE) 13:48:08 435.822 SSB
Uribyol 2 02 Oct 13:40:10 13:44:26 26° 66° (ENE) 13:48:42 436.500 FM
Oscar 10/S400 02 Oct 13:47:11 14:05:06 25° 150° (SSE) 14:20:02 145.825 - 145.975 CW/USB, Beacon 145.810 USB
AO-Echo 02 Oct 14:02:17 14:06:43 44° 72° (ENE) 14:11:12 ?
Oscar 16 02 Oct 14:04:39 14:09:51 79° 257° (WSW) 14:15:04 437.025 USB, Beacon 2401.1428
AO-27 02 Oct 14:17:37 14:22:40 57° 72° (ENE) 14:27:45 436.795 MHz FM
Saudisat 1A 02 Oct 14:22:37 14:26:59 71° 302° (WNW) 14:31:24 436.775 MHz
Gurwin Techsat 1B 02 Oct 14:51:16 14:56:26 56° 73° (ENE) 15:01:38 435.225 FM
Oscar 19 02 Oct 15:03:59 15:08:01 23° 266° (W) 15:12:03 437.125 CW, 437.150 USB
MaSat-1 02 Oct 15:14:05 15:17:19 57° 63° (ENE) 15:20:06 437.345 MHz
JAS-1B 02 Oct 15:17:12 15:24:16 39° 261° (W) 15:30:21 435.800 - 435.900 CW/SSB
ITAMSAT 1 02 Oct 15:18:27 15:23:14 38° 262° (W) 15:28:05 435.822 SSB
TMSAT-1 02 Oct 15:18:45 15:24:00 75° 75° (ENE) 15:29:19 436.925 FM
KITSAT 1 02 Oct 15:18:54 15:21:11 11° 98° (E) 15:23:28 435.175 FM
Uribyol 2 02 Oct 15:18:59 15:23:43 36° 262° (W) 15:28:29 436.500 FM
Uosat F 02 Oct 15:27:14 15:29:52 15° 62° (ENE) 15:32:31 435.120 FM
AO-7 02 Oct 15:36:43 15:44:13 40° 62° (ENE) 15:51:44 29.400 - 29.500 MHz
AO-Echo 02 Oct 15:42:41 15:45:43 17° 267° (W) 15:48:46 ?
AO-27 02 Oct 15:59:25 16:02:31 16° 268° (W) 16:05:39 436.795 MHz FM
Saudisat 1A 02 Oct 16:07:01 16:07:22 10° 321° (NW) 16:07:43 436.775 MHz
Gurwin Techsat 1B 02 Oct 16:33:26 16:36:44 17° 268° (W) 16:40:04 435.225 FM
TMSAT-1 02 Oct 17:02:28 17:04:27 12° 270° (W) 17:06:28 436.925 FM
Uosat F 02 Oct 17:03:08 17:08:04 66° 258° (WSW) 17:13:04 435.120 FM
KITSAT 1 02 Oct 17:07:07 17:15:08 72° 115° (ESE) 17:23:11 435.175 FM
OPAL 02 Oct 17:19:23 17:23:15 22° 96° (E) 17:27:03 ?
AO-7 02 Oct 17:29:02 17:36:51 45° 260° (W) 17:44:43 29.400 - 29.500 MHz
Sapphire 02 Oct 17:40:49 17:44:43 20° 47° (NE) 17:48:36 437.095 MHz 1200 baud AX-25 AFSK
JAS-2 02 Oct 17:43:47 17:48:44 48° 71° (ENE) 17:53:58 435.800 - 435.900 CW/SSB, 435.910 FM
SO-50 02 Oct 18:03:44 18:05:48 13° 107° (ESE) 18:07:54 436.795 FM
PCSat 02 Oct 18:05:39 18:10:29 32° 53° (NE) 18:15:17 145.825 MHz
Hamsat 02 Oct 18:20:51 18:25:11 87° 258° (WSW) 18:29:30 145.90 MHz
OPAL 02 Oct 18:57:30 19:02:16 41° 292° (WNW) 19:06:56 ?
KITSAT 1 02 Oct 19:04:27 19:11:13 29° 316° (NW) 19:18:02 435.175 FM
SO-67 02 Oct 19:18:42 19:22:02 50° 75° (ENE) 19:25:24 435.3500 MHz FM
PANSAT 02 Oct 19:20:28 19:22:19 13° 167° (SSE) 19:24:11 not established
Sapphire 02 Oct 19:23:14 19:28:37 65° 246° (WSW) 19:33:57 437.095 MHz 1200 baud AX-25 AFSK
JAS-2 02 Oct 19:30:51 19:34:15 18° 269° (W) 19:37:46 435.800 - 435.900 CW/SSB, 435.910 FM
SO-50 02 Oct 19:41:22 19:45:47 60° 304° (NW) 19:50:20 436.795 FM
PCSat 02 Oct 19:49:00 19:53:53 35° 250° (WSW) 19:58:45 145.825 MHz
HO-68 02 Oct 19:54:38 19:59:49 22° 58° (ENE) 20:05:00 435.675 MHz FM
UOSAT-12 02 Oct 20:00:24 20:03:33 18° 109° (ESE) 20:06:44 437.025 FM, 437.400 FM
STRAND 1 02 Oct 20:01:37 20:06:47 74° 103° (ESE) 20:11:56 ?
Oscar 11 02 Oct 20:48:52 20:49:32 10° 63° (ENE) 20:50:12 145.825 FM, Beacon 2401.500 USB
PANSAT 02 Oct 20:59:11 21:01:50 18° 180° (S) 21:04:29 not established
UKube-1 02 Oct 21:16:50 21:20:32 28° 69° (ENE) 21:24:15 145.840 MHz, 145.915 MHz
ISS 02 Oct 21:33:11 21:36:25 52° 137° (SE) 21:39:40 145.800 FM
UOSAT-12 02 Oct 21:38:50 21:43:18 47° 306° (NW) 21:47:52 437.025 FM, 437.400 FM
HO-68 02 Oct 21:39:43 21:46:49 71° 256° (WSW) 21:53:59 435.675 MHz FM
STRAND 1 02 Oct 21:42:53 21:45:19 14° 299° (WNW) 21:47:44 ?
ZACube-1 02 Oct 22:00:12 22:04:03 28° 69° (ENE) 22:07:57 437.345 MHz
Oscar 11 02 Oct 22:20:45 22:25:06 72° 258° (WSW) 22:29:28 145.825 FM, Beacon 2401.500 USB
PANSAT 02 Oct 22:39:30 22:41:21 13° 193° (SSW) 22:43:11 not established
